sat.trackr.live / text

‹ back to catalog

STARLINK-2144

NORAD 47734 · 2021-017N

PAYLOAD ACTIVE UNKNOWN

§ Identity

Operator
Country
US
Launch date
2021-03-04
Launch site
AFETR
Launch vehicle
Mass (kg)
RCS (m²)

Purposes: comms

External: N2YO · Heavens-Above · Gunter

§ Orbital elements

Epoch: 2026-05-25T04:38:54.011616Z

Period
94.01 min
Inclination
53.1570°
Eccentricity
0.0001665
Mean motion
15.31706451 rev/d
Perigee alt
469.6 km
Apogee alt
471.9 km
Semi-major
6,848.9 km
B*
1.4226e-4
RAAN
208.0807°
Arg perigee
79.5486°
Mean anomaly
280.5703°
Rev number
28,958

§ Raw data

STARLINK-21441 47734U 21017N   26145.19368069  .00004053  00000+0  14226-3 0  99952 47734  53.1570 208.0807 0001665  79.5486 280.5703 15.31706451289580

JSON: /api/v1/satellites/47734 · /tle

For live sub-satellite position, see the globe view (requires WebGL).

§ Visibility from observer

Set your observer location to see the next 7 days of passes ≥ 10°. The values pass through the URL so the page stays shareable.

No JS? Fill the form by hand. The geolocation button needs JavaScript.